Claremore, OK

7:43 AM CDT on June 25, 2017 (GMT -0500)
Claremore Regional

Weather History for KGCM - November, 2013

Change the Weather History Date:

Friday, November 8, 2013

  Actual Average (KTUL) Record (KTUL)
Temperature  
Mean Temperature 50 °F -  
Max Temperature 64 °F 62 °F 85 °F (2005)
Min Temperature 37 °F 42 °F 16 °F (1991)
Degree Days  
Heating Degree Days 14    
Moisture  
Dew Point 37 °F    
Average Humidity 64    
Maximum Humidity 93    
Minimum Humidity 32    
Precipitation  
Precipitation 0.00 in - - ()
Sea Level Pressure  
Sea Level Pressure 30.22 in    
Wind  
Wind Speed 8 mph (South)    
Max Wind Speed 26 mph    
Max Gust Speed 32 mph    
Visibility 10 miles    
Events      
Averages and records for this station are not official NWS values.
T = Trace of Precipitation, MM = Missing Value Source: NWS Daily Summary

Daily Weather History Graph

Daily Weather History Graph

Search for Another Location

Airport or City:

Trip Planner

Search our weather history database for the weather conditions in past years. The results will help you decide how hot, cold, wet, or windy it might be!

Date:

Astronomy

Nov. 08, 2013 Rise Set
Actual Time 6:52 AM CST 5:18 PM CST
Civil Twilight 6:25 AM CST 5:45 PM CST
Nautical Twilight 5:54 AM CST 6:16 PM CST
Astronomical Twilight 5:24 AM CST 6:46 PM CST
Moon 11:48 AM CST (11/8) 10:40 PM CST (11/8)
Length of Visible Light 11h 20m
Length of Day
10h 26m
Waxing Crescent, 33% of the Moon is Illuminated
Nov 8
Waxing Crescent
Nov 9
First Quarter
Nov 17
Full
Nov 25
Last Quarter
Dec 2
New

Hourly Weather History & Observations

Time (CST) Temp. Windchill Dew Point Humidity Pressure Visibility Wind Dir Wind Speed Gust Speed Precip Events Conditions
12:15 AM 37.4 °F - 35.6 °F 93% 30.37 in 10.0 mi Calm Calm - N/A   Clear
12:35 AM 39.2 °F - 35.6 °F 87% 30.36 in 10.0 mi Calm Calm - N/A   Clear
12:55 AM 41.0 °F - 35.6 °F 81% 30.37 in 10.0 mi Calm Calm - N/A   Clear
1:15 AM 39.2 °F - 35.6 °F 87% 30.36 in 10.0 mi Calm Calm - N/A   Clear
1:35 AM 39.2 °F 37.0 °F 37.4 °F 93% 30.36 in 10.0 mi East 3.5 mph - N/A   Clear
1:55 AM 41.0 °F - 37.4 °F 87% 30.35 in 10.0 mi Calm Calm - N/A   Clear
2:15 AM 41.0 °F - 37.4 °F 87% 30.35 in 10.0 mi Calm Calm - N/A   Clear
2:35 AM 37.4 °F 34.9 °F 35.6 °F 93% 30.35 in 10.0 mi SSE 3.5 mph - N/A   Clear
2:55 AM 39.2 °F - 37.4 °F 93% 30.35 in 10.0 mi Calm Calm - N/A   Clear
3:15 AM 37.4 °F 34.9 °F 35.6 °F 93% 30.34 in 10.0 mi SSE 3.5 mph - N/A   Clear
3:35 AM 39.2 °F 37.0 °F 35.6 °F 87% 30.33 in 10.0 mi SE 3.5 mph - N/A   Clear
3:55 AM 37.4 °F - 35.6 °F 93% 30.33 in 10.0 mi Calm Calm - N/A   Clear
4:15 AM 37.4 °F - 35.6 °F 93% 30.33 in 10.0 mi Calm Calm - N/A   Clear
4:35 AM 37.4 °F - 35.6 °F 93% 30.33 in 10.0 mi Calm Calm - N/A   Clear
4:55 AM 37.4 °F 33.8 °F 35.6 °F 93% 30.32 in 10.0 mi SSE 4.6 mph - N/A   Clear
5:15 AM 37.4 °F 32.8 °F 35.6 °F 93% 30.32 in 10.0 mi SSE 5.8 mph - N/A   Clear
5:35 AM 39.2 °F 35.0 °F 37.4 °F 93% 30.32 in 10.0 mi SSE 5.8 mph - N/A   Clear
5:55 AM 39.2 °F 34.2 °F 35.6 °F 87% 30.32 in 10.0 mi SSE 6.9 mph - N/A   Clear
6:15 AM 39.2 °F 35.9 °F 35.6 °F 87% 30.32 in 10.0 mi SSE 4.6 mph - N/A   Clear
6:35 AM 39.2 °F 35.0 °F 35.6 °F 87% 30.32 in 10.0 mi SSE 5.8 mph - N/A   Clear
6:55 AM 39.2 °F 34.2 °F 37.4 °F 93% 30.31 in 10.0 mi SSE 6.9 mph - N/A   Clear
7:15 AM 39.2 °F 34.2 °F 37.4 °F 93% 30.31 in 10.0 mi SSE 6.9 mph - N/A   Clear
7:35 AM 41.0 °F 36.4 °F 37.4 °F 87% 30.31 in 10.0 mi South 6.9 mph - N/A   Clear
7:55 AM 42.8 °F 40.1 °F 39.2 °F 87% 30.31 in 10.0 mi SSE 4.6 mph - N/A   Clear
8:15 AM 44.6 °F 40.7 °F 41.0 °F 87% 30.31 in 10.0 mi SSE 6.9 mph - N/A   Clear
8:35 AM 44.6 °F 40.2 °F 41.0 °F 87% 30.31 in 10.0 mi SSE 8.1 mph - N/A   Clear
8:55 AM 48.2 °F - 41.0 °F 76% 30.30 in 10.0 mi South 8.1 mph - N/A   Clear
9:15 AM 50.0 °F - 41.0 °F 71% 30.30 in 10.0 mi South 10.4 mph - N/A   Clear
9:35 AM 51.8 °F - 39.2 °F 62% 30.30 in 10.0 mi South 9.2 mph - N/A   Clear
9:55 AM 55.4 °F - 39.2 °F 54% 30.30 in 10.0 mi South 13.8 mph 18.4 mph N/A   Clear
10:15 AM 55.4 °F - 39.2 °F 54% 30.29 in 10.0 mi South 16.1 mph 20.7 mph N/A   Clear
10:35 AM 57.2 °F - 39.2 °F 51% 30.28 in 10.0 mi South 17.3 mph 21.9 mph N/A   Clear
10:55 AM 59.0 °F - 39.2 °F 48% 30.27 in 10.0 mi SSW 16.1 mph 24.2 mph N/A   Clear
11:15 AM 60.8 °F - 37.4 °F 42% 30.26 in 10.0 mi South 19.6 mph 25.3 mph N/A   Clear
11:35 AM 60.8 °F - 37.4 °F 42% 30.25 in 10.0 mi SSW 20.7 mph 25.3 mph N/A   Clear
11:55 AM 62.6 °F - 35.6 °F 37% 30.24 in 10.0 mi SSW 26.5 mph 32.2 mph N/A   Clear
12:15 PM 62.6 °F - 35.6 °F 37% 30.22 in 10.0 mi SSW 21.9 mph 31.1 mph N/A   Clear
12:35 PM 62.6 °F - 35.6 °F 37% 30.20 in 10.0 mi South 23.0 mph 31.1 mph N/A   Clear
12:55 PM 62.6 °F - 35.6 °F 37% 30.19 in 10.0 mi SSW 24.2 mph 31.1 mph N/A   Clear
1:15 PM 62.6 °F - 33.8 °F 34% 30.18 in 10.0 mi South 21.9 mph 31.1 mph N/A   Clear
1:35 PM 64.4 °F - 33.8 °F 32% 30.17 in 10.0 mi South 25.3 mph 29.9 mph N/A   Clear
1:55 PM 64.4 °F - 35.6 °F 34% 30.16 in 10.0 mi South 18.4 mph 28.8 mph N/A   Clear
2:15 PM 64.4 °F - 33.8 °F 32% 30.14 in 10.0 mi South 19.6 mph 27.6 mph N/A   Clear
2:35 PM 64.4 °F - 33.8 °F 32% 30.13 in 10.0 mi South 20.7 mph 28.8 mph N/A   Clear
2:55 PM 64.4 °F - 33.8 °F 32% 30.13 in 10.0 mi South 19.6 mph 29.9 mph N/A   Clear
3:15 PM 62.6 °F - 35.6 °F 37% 30.13 in 10.0 mi South 20.7 mph 27.6 mph N/A   Clear
3:35 PM 64.4 °F - 33.8 °F 32% 30.12 in 10.0 mi South 18.4 mph 29.9 mph N/A   Clear
3:55 PM 62.6 °F - 33.8 °F 34% 30.11 in 10.0 mi South 23.0 mph 29.9 mph N/A   Clear
4:15 PM 64.4 °F - 33.8 °F 32% 30.11 in 10.0 mi South 18.4 mph 25.3 mph N/A   Clear
4:35 PM 60.8 °F - 33.8 °F 36% 30.11 in 10.0 mi South 17.3 mph 28.8 mph N/A   Clear
4:55 PM 60.8 °F - 35.6 °F 39% 30.10 in 10.0 mi South 13.8 mph 23.0 mph N/A   Clear
5:15 PM 59.0 °F - 35.6 °F 42% 30.10 in 10.0 mi South 13.8 mph 23.0 mph N/A   Clear
5:35 PM 59.0 °F - 35.6 °F 42% 30.09 in 10.0 mi South 13.8 mph 19.6 mph N/A   Clear
5:55 PM 59.0 °F - 37.4 °F 45% 30.08 in 10.0 mi South 11.5 mph 19.6 mph N/A   Clear
6:15 PM 59.0 °F - 37.4 °F 45% 30.08 in 10.0 mi South 17.3 mph 26.5 mph N/A   Clear
6:35 PM 57.2 °F - 35.6 °F 44% 30.09 in 10.0 mi South 16.1 mph 24.2 mph N/A   Clear
6:55 PM 55.4 °F - 35.6 °F 47% 30.10 in 10.0 mi South 15.0 mph 19.6 mph N/A   Clear
7:15 PM 55.4 °F - 37.4 °F 51% 30.09 in 10.0 mi South 15.0 mph - N/A   Clear
7:35 PM 55.4 °F - 37.4 °F 51% 30.09 in 10.0 mi South 10.4 mph 20.7 mph N/A   Clear
7:55 PM 55.4 °F - 37.4 °F 51% 30.09 in 10.0 mi South 12.7 mph 19.6 mph N/A   Clear
8:15 PM 53.6 °F - 39.2 °F 58% 30.10 in 10.0 mi South 12.7 mph 18.4 mph N/A   Clear
8:35 PM 53.6 °F - 39.2 °F 58% 30.11 in 10.0 mi South 11.5 mph - N/A   Clear
8:55 PM 53.6 °F - 39.2 °F 58% 30.11 in 10.0 mi South 10.4 mph - N/A   Clear
9:15 PM 51.8 °F - 39.2 °F 62% 30.11 in 10.0 mi South 9.2 mph - N/A   Clear
9:35 PM 50.0 °F - 39.2 °F 66% 30.13 in 10.0 mi South 6.9 mph - N/A   Clear
9:55 PM 50.0 °F - 39.2 °F 66% 30.14 in 10.0 mi South 4.6 mph - N/A   Clear
10:15 PM 48.2 °F - 39.2 °F 71% 30.13 in 10.0 mi South 10.4 mph - N/A   Clear
10:35 PM 48.2 °F - 41.0 °F 76% 30.14 in 10.0 mi South 6.9 mph - N/A   Clear
10:55 PM 50.0 °F - 41.0 °F 71% 30.13 in 10.0 mi South 10.4 mph - N/A   Clear
11:15 PM 50.0 °F - 41.0 °F 71% 30.13 in 10.0 mi South 6.9 mph - N/A   Clear
11:35 PM 48.2 °F - 41.0 °F 76% 30.13 in 10.0 mi South 8.1 mph - N/A   Clear
11:55 PM 50.0 °F - 41.0 °F 71% 30.13 in 10.0 mi South 9.2 mph - N/A   Clear